National Weather Service Raw Text Product

Displaying AFOS PIL: RWRIA Received: 2017-11-15 03:00 UTC


971 
ASUS43 KDMX 150306
RWRIA 

WEATHER ROUNDUP FOR IOWA
NATIONAL WEATHER SERVICE DES MOINES IA
900 PM CST TUE NOV 14 2017

NOTE: "FAIR" INDICATES FEW OR NO CLOUDS BELOW 12,000 FEET WITH NO
SIGNIFICANT WEATHER AND/OR OBSTRUCTIONS TO VISIBILITY.

* - THESE STATIONS ARE NOT NWS STATIONS...THUS NOT UNDER NWS
QUALITY CONTROL.  THEY ALSO DO NOT REPORT WEATHER SUCH 
AS PRECIPITATION OR FOG.  

IAZ001>003-012>014-020>022-031>034-043>046-150400-
   NORTHWEST IOWA
  
CITY           SKY/WX    TMP DP  RH WIND       PRES   REMARKS
CARROLL *      CLOUDY    54  54 100 SW6       29.84R FOG              
CHEROKEE *     CLOUDY    50  49  98 SW7       29.82S                  
DENISON *      CLOUDY    52  52 100 SW7       29.85S FOG              
LE MARS *      CLOUDY    50  48  93 S8        29.80F                  
ORANGE CITY *  CLOUDY    50  50 100 S12       29.78F                  
SHELDON *      CLOUDY    50  48  93 S17       29.74F                  
SIOUX CITY     CLOUDY    49  48  97 S6        29.83R                  
SPENCER        CLOUDY    50  48  93 SW10      29.81R                  
STORM LAKE *   CLOUDY    50  48  93 SW12      29.82S FOG              
$$
 
IAZ055>058-069>071-079>083-090>094-150400-
   SOUTHWEST IOWA
  
CITY           SKY/WX    TMP DP  RH WIND       PRES   REMARKS
ATLANTIC *     CLOUDY    54  54 100 S13       29.85S FOG              
AUDUBON *      DRIZZLE   54  52  94 SW8       29.86R                  
CLARINDA *       N/A     54  54 100 S12         N/A  FOG              
COUNCIL BLFS * FOG       54  54 100 SW5       29.85S VSB<1/4          
CRESTON *      CLOUDY    52  52 100 S12       29.88S FOG              
HARLAN  *      CLOUDY    54  54 100 SW9       29.88S                  
LAMONI         CLOUDY    51  51 100 S12       29.89S FOG              
RED OAK *      CLOUDY    54  54 100 S10       29.87R FOG              
SHENANDOAH *   CLOUDY    55  54  94 S8        29.87R FOG              
$$
 
IAZ047>049-059>061-072>074-084-150400-
   CENTRAL IOWA
  
CITY           SKY/WX    TMP DP  RH WIND       PRES   REMARKS
AMES           CLOUDY    50  50 100 S13       29.86S FOG              
ANKENY *       CLOUDY    50  48  93 S12       29.88S FOG              
BOONE *        CLOUDY    50  50 100 S13G18    29.84S FOG              
CHARITON *     CLOUDY    50  48  93 S14       29.88F FOG              
DES MOINES     DRIZZLE   51  50  96 S10       29.87F FOG              
GRINNELL*      RAIN      47  46  97 S13       29.91S                  
KNOXVILLE *    CLOUDY    50  48  93 S10       29.88F FOG              
MARSHALLTOWN   CLOUDY    48  48 100 S13       29.87F FOG              
NEWTON *       FOG       48  48 100 S12       29.89F VSB 1            
PELLA *        CLOUDY    49  48  95 S10       29.91S FOG              
PERRY *        CLOUDY    52  52  99 S12       29.86R FOG              
$$
 
IAZ004>006-015-016-023>025-035-036-150400-
   NORTH CENTRAL IOWA
  
CITY           SKY/WX    TMP DP  RH WIND       PRES   REMARKS
ALGONA *       CLOUDY    52  52 100 SW9       29.83R FOG              
CLARION *      CLOUDY    50  50 100 S13       29.83F FOG              
ESTHERVILLE    CLOUDY    48  48 100 S10       29.79S FOG              
FORT DODGE *   LGT RAIN  51  51 100 S9        29.84R FOG              
MASON CITY     LGT RAIN  48  47  96 S12       29.85S FOG              
FOREST CITY *  DRIZZLE   50  50 100 S6        29.83S                  
WEBSTER CITY * CLOUDY    50  50 100 S12       29.82S FOG              
IOWA FALLS *   CLOUDY    49  48  97 S12       29.87S FOG              
$$

IAZ007>011-017>019-026>030-037>042-050>054-066-150400-
   NORTHEAST IOWA
  
CITY           SKY/WX    TMP DP  RH WIND       PRES   REMARKS
CEDAR RAPIDS   CLOUDY    47  41  80 S12       29.91F                  
CHARLES CITY * FOG       46  46 100 S10G18    29.87S VSB 1            
CLINTON *      CLOUDY    48  39  71 S14       29.99S                  
DECORAH *      FOG       43  43 100 S12       29.89R VSB 3/4          
DUBUQUE        CLOUDY    44  39  82 S13       29.93F                  
MONTICELLO *   CLOUDY    45  39  81 SE12      29.92F                  
OELWEIN *      CLOUDY    45  45 100 S12G18    29.91R FOG              
WATERLOO       CLOUDY    45  45 100 S10       29.88S FOG              
$$
 
IAZ064-065-067-068-078-150400-
   EAST CENTRAL IOWA
  
CITY           SKY/WX    TMP DP  RH WIND       PRES   REMARKS
DAVENPORT      CLOUDY    49  37  63 S13G18    29.99R                  
IOWA CITY      CLOUDY    50  40  68 SE12      29.95F                  
MT. PLEASANT * CLOUDY    48  38  68 S9        29.96S                  
MUSCATINE *      N/A     48  39  71 S8        29.97S                  
QUAD CITIES    CLOUDY    50  37  61 S16G23    29.97S                  
$$
 
IAZ062-063-075>077-085>089-095>099-150400-
   SOUTHEAST IOWA
  
CITY           SKY/WX    TMP DP  RH WIND       PRES   REMARKS
BURLINGTON     CLOUDY    50  38  63 S13       29.97S                  
FAIRFIELD *    CLOUDY    50  43  76 S13G22    29.92F                  
FORT MADISON * CLOUDY    50  39  66 S10       29.98R                  
KEOKUK *       CLOUDY    52  39  62 S9        29.97R                  
OSKALOOSA *    CLOUDY    47  47  98 S13       29.92S FOG              
OTTUMWA        CLOUDY    49  48  97 S15       29.92S FOG              
WASHINGTON *   CLOUDY    50  41  71 S14G20    29.95F                  
$$

ABBREVIATIONS USED IN REMARKS
   TC - TEMPERATURES IN CELSIUS
  WCI - WIND CHILL INDEX
   HX - HEAT INDEX
  VSB - VISIBILITY  
$$

  

530 
ASUS43 KDMX 150301
RWRIA 

WEATHER ROUNDUP FOR IOWA
NATIONAL WEATHER SERVICE DES MOINES IA
900 PM CST TUE NOV 14 2017

NOTE: "FAIR" INDICATES FEW OR NO CLOUDS BELOW 12,000 FEET WITH NO
SIGNIFICANT WEATHER AND/OR OBSTRUCTIONS TO VISIBILITY.

* - THESE STATIONS ARE NOT NWS STATIONS...THUS NOT UNDER NWS
QUALITY CONTROL.  THEY ALSO DO NOT REPORT WEATHER SUCH 
AS PRECIPITATION OR FOG.  

IAZ001>003-012>014-020>022-031>034-043>046-150400-
   NORTHWEST IOWA
  
CITY           SKY/WX    TMP DP  RH WIND       PRES   REMARKS
CARROLL *      CLOUDY    54  54 100 SW6       29.84R FOG              
CHEROKEE *     CLOUDY    50  49  98 SW7       29.82S                  
DENISON *      CLOUDY    52  52 100 SW7       29.85S FOG              
LE MARS *      CLOUDY    50  48  93 S8        29.80F                  
ORANGE CITY *  CLOUDY    50  50 100 S12       29.78F                  
SHELDON *      CLOUDY    50  48  93 S17       29.74F                  
SIOUX CITY     CLOUDY    49  48  97 S6        29.83R                  
SPENCER        CLOUDY    50  48  93 SW10      29.81R                  
STORM LAKE *   CLOUDY    50  48  93 SW12      29.82S FOG              
$$
 
IAZ055>058-069>071-079>083-090>094-150400-
   SOUTHWEST IOWA
  
CITY           SKY/WX    TMP DP  RH WIND       PRES   REMARKS
ATLANTIC *     CLOUDY    54  54 100 S13       29.85S FOG              
AUDUBON *      DRIZZLE   54  52  94 SW8       29.86R                  
CLARINDA *       N/A     54  54 100 S12         N/A  FOG              
COUNCIL BLFS * FOG       54  54 100 SW5       29.85S VSB<1/4          
CRESTON *      CLOUDY    52  52 100 S12       29.88S FOG              
HARLAN  *      CLOUDY    54  54 100 SW9       29.88S                  
LAMONI         CLOUDY    51  51 100 S12       29.89S FOG              
RED OAK *      CLOUDY    54  54 100 S10       29.87R FOG              
SHENANDOAH *   CLOUDY    55  54  94 S8        29.87R FOG              
$$
 
IAZ047>049-059>061-072>074-084-150400-
   CENTRAL IOWA
  
CITY           SKY/WX    TMP DP  RH WIND       PRES   REMARKS
AMES           CLOUDY    50  50 100 S13       29.86S FOG              
ANKENY *       CLOUDY    50  48  93 S12       29.88S FOG              
BOONE *        CLOUDY    50  50 100 S13G18    29.84S FOG              
CHARITON *     CLOUDY    50  48  93 S14       29.88F FOG              
DES MOINES     DRIZZLE   51  50  96 S10       29.87F FOG              
GRINNELL*      RAIN      47  46  97 S13       29.91S                  
KNOXVILLE *    CLOUDY    50  48  93 S10       29.88F FOG              
MARSHALLTOWN   CLOUDY    48  48 100 S13       29.87F FOG              
NEWTON *       FOG       48  48 100 S12       29.89F VSB 1            
PELLA *        CLOUDY    49  48  95 S10       29.91S FOG              
PERRY *        CLOUDY    52  52  99 S12       29.86R FOG              
$$
 
IAZ004>006-015-016-023>025-035-036-150400-
   NORTH CENTRAL IOWA
  
CITY           SKY/WX    TMP DP  RH WIND       PRES   REMARKS
ALGONA *       CLOUDY    52  52 100 SW9       29.83R FOG              
CLARION *      CLOUDY    50  50 100 S13       29.83F FOG              
ESTHERVILLE    CLOUDY    48  48 100 S10       29.79S FOG              
FORT DODGE *   LGT RAIN  51  51 100 S9        29.84R FOG              
MASON CITY     LGT RAIN  48  47  96 S12       29.85S FOG              
FOREST CITY *  DRIZZLE   50  50 100 S6        29.83S                  
WEBSTER CITY * CLOUDY    50  50 100 S12       29.82S FOG              
IOWA FALLS *   CLOUDY    49  48  97 S12       29.87S FOG              
$$

IAZ007>011-017>019-026>030-037>042-050>054-066-150400-
   NORTHEAST IOWA
  
CITY           SKY/WX    TMP DP  RH WIND       PRES   REMARKS
CEDAR RAPIDS   CLOUDY    47  41  80 S12       29.91F                  
CHARLES CITY * FOG       46  46 100 S10G18    29.87S VSB 1            
CLINTON *      CLOUDY    48  39  71 S14       29.99S                  
DECORAH *      FOG       43  43 100 S12       29.89R VSB 3/4          
DUBUQUE        CLOUDY    44  39  82 S13       29.93F                  
MONTICELLO *   CLOUDY    45  39  81 SE12      29.92F                  
OELWEIN *      CLOUDY    45  45 100 S12G18    29.91R FOG              
WATERLOO       CLOUDY    45  45 100 S10       29.88S FOG              
$$
 
IAZ064-065-067-068-078-150400-
   EAST CENTRAL IOWA
  
CITY           SKY/WX    TMP DP  RH WIND       PRES   REMARKS
DAVENPORT      CLOUDY    49  37  63 S13G18    29.99R                  
IOWA CITY      CLOUDY    50  40  68 SE12      29.95F                  
MT. PLEASANT * CLOUDY    48  38  68 S9        29.96S                  
MUSCATINE *      N/A     48  39  71 S8        29.97S                  
QUAD CITIES    CLOUDY    50  37  61 S16G23    29.97S                  
$$
 
IAZ062-063-075>077-085>089-095>099-150400-
   SOUTHEAST IOWA
  
CITY           SKY/WX    TMP DP  RH WIND       PRES   REMARKS
BURLINGTON     CLOUDY    50  38  63 S13       29.97S                  
FAIRFIELD *    CLOUDY    50  43  76 S13G22    29.92F                  
FORT MADISON * CLOUDY    50  39  66 S10       29.98R                  
KEOKUK *       CLOUDY    52  39  62 S9        29.97R                  
OSKALOOSA *    CLOUDY    47  47  98 S13       29.92S FOG              
OTTUMWA        CLOUDY    49  48  97 S15       29.92S FOG              
WASHINGTON *   CLOUDY    50  41  71 S14G20    29.95F                  
$$

ABBREVIATIONS USED IN REMARKS
   TC - TEMPERATURES IN CELSIUS
  WCI - WIND CHILL INDEX
   HX - HEAT INDEX
  VSB - VISIBILITY  
$$